{"data":{"norad_id":64696,"intl_designator":"2025-142A","name":"STARLINK-34497","alt_names":[],"object_type":"PAYLOAD","status":"ACTIVE","operator":null,"country":"US","launch_date":"2025-06-28","launch_site_code":"AFWTR","launch_vehicle":null,"mission":null,"orbit_class":"UNKNOWN","rcs_meters":null,"size_class":null,"mass_kg":null,"dimensions":null,"purposes":["comms"],"wikipedia_slug":null,"has_3d_model":false,"image_url":null,"decayed_at":null,"tle_current":{"epoch":"2026-09-20T11:51:53.875584Z","epoch_age_seconds":131846,"freshness":"FRESH","line1":"1 64696U 25142A   26263.49437356  .00010728  00000+0  37693-3 0  9993","line2":"2 64696  70.0052 181.1766 0003429 269.1147  90.9635 15.29593117 68879","mean_motion":15.29593117,"eccentricity":0.0003429,"inclination_deg":70.0052,"raan_deg":181.1766,"arg_perigee_deg":269.1147,"mean_anomaly_deg":90.9635,"bstar":0.00037693,"rev_number":6887,"period_min":94.14268304399,"perigee_km":474.67707578337,"apogee_km":479.3783477427,"semimajor_km":6855.164711763,"source":"CELESTRAK","updated_at":"2026-09-21T09:00:35.402690Z"}}}